sat.trackr.live / text

‹ back to catalog

UNKNOWN

NORAD 81427

UNKNOWN UNKNOWN UNKNOWN

§ Identity

Operator
Country
Launch date
Launch site
Launch vehicle
Mass (kg)
RCS (m²)

External: N2YO · Heavens-Above

§ Orbital elements

Epoch: 2026-05-23T15:06:28.543392Z

Period
102.33 min
Inclination
98.7329°
Eccentricity
0.0083319
Mean motion
14.07202907 rev/d
Perigee alt
808.6 km
Apogee alt
929.3 km
Semi-major
7,247.1 km
B*
2.4868e-4
RAAN
25.4549°
Arg perigee
302.9934°
Mean anomaly
56.3247°
Rev number
57,453

§ Raw data

UNKNOWN1 81427U          26143.62949703  .00000387  00000+0  24868-3 0  99962 81427  98.7329  25.4549 0083319 302.9934  56.3247 14.07202907574538

JSON: /api/v1/satellites/81427 · /tle

For live sub-satellite position, see the globe view (requires WebGL).

§ Visibility from observer

Set your observer location to see the next 7 days of passes ≥ 10°. The values pass through the URL so the page stays shareable.

No JS? Fill the form by hand. The geolocation button needs JavaScript.